When you browse on this site, cookies collect data to enhance your experience and personalize the content and advertising you see.
Visit our Privacy Policy to learn more. By continuing to use the site, you agree to this use of cookies and data.
  • In Spain
  • List of Countries
  • For 7 days
  • Water Temperature
  • Satellite Maps
  • Weather Map
  • Weather Widgets
  • user-avatar
    Login

    Hourly Weather Sidi Bu-l-Abbas

    Today, 18 June, Tuesday

    Time Temperature Precipitation Wind Pressure Humidity
    00:00 +19°C° 0 mm 0 mps 720 mmHg 82%
    01:00 +19°C° 0 mm 0 mps 720 mmHg 83%
    02:00 +18°C° 0 mm 0 mps 719 mmHg 84%
    03:00 +18°C° 0 mm 0 mps 719 mmHg 85%
    04:00 +19°C° 0 mm 0 mps 719 mmHg 81%
    05:00 +19°C° 0 mm 0 mps 719 mmHg 78%
    06:00 +20°C° 0 mm 0 mps 720 mmHg 74%
    07:00 +24°C° 0 mm 1 mps 720 mmHg 66%
    08:00 +26°C° 0 mm 2 mps 720 mmHg 58%
    09:00 +27°C° 0 mm 2 mps 720 mmHg 51%
    10:00 +29°C° 0 mm 3 mps 720 mmHg 46%
    11:00 +30°C° 0 mm 3 mps 720 mmHg 41%
    12:00 +33°C° 0 mm 4 mps 721 mmHg 36%
    13:00 +33°C° 0 mm 5 mps 720 mmHg 37%
    14:00 +32°C° 0 mm 5 mps 720 mmHg 39%
    15:00 +32°C° 0 mm 6 mps 719 mmHg 40%
    16:00 +30°C° 0 mm 5 mps 719 mmHg 42%
    17:00 +29°C° 0 mm 4 mps 719 mmHg 44%
    18:00 +28°C° 0 mm 3 mps 719 mmHg 47%
    19:00 +26°C° 0 mm 2 mps 719 mmHg 52%
    20:00 +25°C° 0 mm 2 mps 719 mmHg 56%
    21:00 +24°C° 0 mm 1 mps 720 mmHg 61%
    22:00 +23°C° 0 mm 1 mps 720 mmHg 63%
    23:00 +23°C° 0 mm 1 mps 720 mmHg 66%

    Tomorrow, 19 June, Wednesday

    Time Temperature Precipitation Wind Pressure Humidity
    00:00 +22°C° 0 mm 1 mps 720 mmHg 68%
    01:00 +22°C° 0 mm 1 mps 719 mmHg 70%
    02:00 +21°C° 0 mm 1 mps 719 mmHg 72%
    03:00 +21°C° 0 mm 1 mps 719 mmHg 74%
    04:00 +21°C° 0 mm 1 mps 719 mmHg 71%
    05:00 +22°C° 0 mm 1 mps 719 mmHg 68%
    06:00 +22°C° 0 mm 1 mps 720 mmHg 65%
    07:00 +24°C° 0 mm 1 mps 720 mmHg 54%
    08:00 +26°C° 0 mm 2 mps 720 mmHg 42%
    09:00 +28°C° 0 mm 2 mps 720 mmHg 30%
    10:00 +30°C° 0 mm 3 mps 720 mmHg 28%
    11:00 +31°C° 0 mm 3 mps 720 mmHg 25%
    12:00 +34°C° 0 mm 4 mps 720 mmHg 23%
    13:00 +33°C° 0 mm 5 mps 719 mmHg 25%
    14:00 +33°C° 0 mm 6 mps 719 mmHg 26%
    15:00 +33°C° 0 mm 7 mps 718 mmHg 28%
    16:00 +30°C° 0 mm 6 mps 718 mmHg 32%
    17:00 +29°C° 0 mm 5 mps 718 mmHg 35%
    18:00 +27°C° 0 mm 5 mps 718 mmHg 38%
    19:00 +26°C° 0 mm 3 mps 718 mmHg 41%
    20:00 +25°C° 0 mm 2 mps 718 mmHg 44%
    21:00 +24°C° 0 mm 1 mps 719 mmHg 47%
    22:00 +24°C° 0 mm 1 mps 719 mmHg 47%
    23:00 +24°C° 0 mm 1 mps 719 mmHg 48%

    Day after tomorrow, 20 June, Thursday

    Time Temperature Precipitation Wind Pressure Humidity
    00:00 +23°C° 0 mm 2 mps 719 mmHg 48%
    01:00 +23°C° 0 mm 2 mps 718 mmHg 49%
    02:00 +22°C° 0 mm 1 mps 718 mmHg 50%
    03:00 +21°C° 0 mm 1 mps 718 mmHg 51%
    04:00 +22°C° 0 mm 1 mps 718 mmHg 49%
    05:00 +22°C° 0 mm 1 mps 718 mmHg 47%
    06:00 +23°C° 0 mm 1 mps 719 mmHg 45%
    07:00 +24°C° 0 mm 2 mps 719 mmHg 40%
    08:00 +26°C° 0 mm 2 mps 719 mmHg 35%
    09:00 +27°C° 0 mm 3 mps 719 mmHg 30%
    10:00 +28°C° 0 mm 4 mps 719 mmHg 29%
    11:00 +29°C° 0 mm 5 mps 719 mmHg 28%
    12:00 +30°C° 0 mm 6 mps 719 mmHg 27%
    13:00 +30°C° 0 mm 6 mps 719 mmHg 28%
    14:00 +30°C° 0 mm 6 mps 718 mmHg 29%
    15:00 +29°C° 0 mm 7 mps 717 mmHg 30%
    16:00 +29°C° 0 mm 6 mps 717 mmHg 31%
    17:00 +28°C° 0 mm 5 mps 718 mmHg 32%
    18:00 +27°C° 0 mm 4 mps 718 mmHg 34%
    19:00 +26°C° 0 mm 3 mps 718 mmHg 36%
    20:00 +25°C° 0 mm 2 mps 718 mmHg 37%
    21:00 +23°C° 0 mm 1 mps 719 mmHg 39%
    22:00 +23°C° 0 mm 1 mps 719 mmHg 39%
    23:00 +23°C° 0 mm 1 mps 719 mmHg 40%

    21 June, Friday

    Time Temperature Precipitation Wind Pressure Humidity
    00:00 +21°C° 0 mm 2 mps 719 mmHg 40%
    01:00 +21°C° 0 mm 1 mps 718 mmHg 42%
    02:00 +21°C° 0 mm 1 mps 718 mmHg 43%
    03:00 +20°C° 0 mm 1 mps 718 mmHg 45%
    04:00 +21°C° 0 mm 1 mps 718 mmHg 43%
    05:00 +20°C° 0 mm 0 mps 719 mmHg 41%
    06:00 +20°C° 0 mm 0 mps 719 mmHg 39%
    07:00 +24°C° 0 mm 2 mps 719 mmHg 37%
    08:00 +25°C° 0 mm 3 mps 719 mmHg 35%
    09:00 +27°C° 0 mm 4 mps 720 mmHg 33%
    10:00 +28°C° 0 mm 5 mps 719 mmHg 32%
    11:00 +29°C° 0 mm 5 mps 719 mmHg 31%
    12:00 +30°C° 0 mm 6 mps 719 mmHg 30%
    13:00 +30°C° 0 mm 6 mps 719 mmHg 29%
    14:00 +30°C° 0 mm 6 mps 718 mmHg 29%
    15:00 +30°C° 0 mm 7 mps 718 mmHg 29%
    16:00 +29°C° 0 mm 6 mps 718 mmHg 30%
    17:00 +28°C° 0 mm 6 mps 718 mmHg 32%
    18:00 +27°C° 0 mm 5 mps 718 mmHg 33%
    19:00 +25°C° 0 mm 3 mps 718 mmHg 38%
    20:00 +24°C° 0 mm 2 mps 719 mmHg 43%
    21:00 +22°C° 0 mm 1 mps 719 mmHg 48%
    22:00 +22°C° 0 mm 1 mps 719 mmHg 49%
    23:00 +21°C° 0 mm 1 mps 719 mmHg 51%

    22 June, Saturday

    Time Temperature Precipitation Wind Pressure Humidity
    00:00 +21°C° 0 mm 1 mps 719 mmHg 52%
    01:00 +20°C° 0 mm 1 mps 719 mmHg 56%
    02:00 +17°C° 0 mm 0 mps 718 mmHg 60%
    03:00 +16°C° 0 mm 0 mps 718 mmHg 63%
    04:00 +17°C° 0 mm 0 mps 718 mmHg 60%
    05:00 +18°C° 0 mm 0 mps 718 mmHg 57%
    06:00 +21°C° 0 mm 1 mps 719 mmHg 54%
    07:00 +23°C° 0 mm 1 mps 719 mmHg 48%
    08:00 +24°C° 0 mm 1 mps 719 mmHg 42%
    09:00 +26°C° 0 mm 2 mps 719 mmHg 36%
    10:00 +27°C° 0 mm 2 mps 719 mmHg 33%
    11:00 +29°C° 0 mm 3 mps 719 mmHg 29%
    12:00 +31°C° 0 mm 3 mps 719 mmHg 26%
    13:00 +32°C° 0 mm 4 mps 719 mmHg 28%
    14:00 +32°C° 0 mm 5 mps 718 mmHg 31%
    15:00 +32°C° 0 mm 7 mps 718 mmHg 33%
    16:00 +30°C° 0 mm 6 mps 718 mmHg 38%
    17:00 +28°C° 0 mm 5 mps 718 mmHg 43%
    18:00 +27°C° 0 mm 4 mps 717 mmHg 47%
    19:00 +25°C° 0 mm 3 mps 718 mmHg 54%
    20:00 +24°C° 0 mm 2 mps 718 mmHg 62%
    21:00 +20°C° 0 mm 0 mps 719 mmHg 69%
    22:00 +20°C° 0 mm 0 mps 719 mmHg 71%
    23:00 +19°C° 0 mm 0 mps 719 mmHg 73%

    23 June, Sunday

    Time Temperature Precipitation Wind Pressure Humidity
    00:00 +19°C° 0 mm 0 mps 718 mmHg 75%
    01:00 +18°C° 0 mm 0 mps 718 mmHg 79%
    02:00 +19°C° 0 mm 1 mps 718 mmHg 82%
    03:00 +19°C° 0 mm 1 mps 718 mmHg 86%
    04:00 +19°C° 0 mm 1 mps 718 mmHg 84%
    05:00 +20°C° 0 mm 1 mps 718 mmHg 82%
    06:00 +18°C° 0 mm 0 mps 718 mmHg 80%
    07:00 +23°C° 0 mm 1 mps 718 mmHg 68%
    08:00 +25°C° 0 mm 2 mps 718 mmHg 56%
    09:00 +27°C° 0 mm 2 mps 718 mmHg 44%
    10:00 +30°C° 0 mm 3 mps 718 mmHg 39%
    11:00 +33°C° 0 mm 4 mps 718 mmHg 33%
    12:00 +35°C° 0 mm 5 mps 718 mmHg 28%
    13:00 +35°C° 0 mm 5 mps 718 mmHg 31%
    14:00 +35°C° 0 mm 5 mps 718 mmHg 34%
    15:00 +34°C° 0 mm 5 mps 717 mmHg 36%
    16:00 +33°C° 0 mm 5 mps 717 mmHg 41%
    17:00 +32°C° 0 mm 4 mps 717 mmHg 45%
    18:00 +29°C° 0 mm 3 mps 717 mmHg 50%
    19:00 +28°C° 0 mm 3 mps 717 mmHg 56%
    20:00 +26°C° 0 mm 2 mps 717 mmHg 63%
    21:00 +25°C° 0 mm 1 mps 718 mmHg 69%
    22:00 +24°C° 0 mm 1 mps 718 mmHg 70%
    23:00 +23°C° 0 mm 1 mps 718 mmHg 72%
    Show more